This is the latest recevied weather packets stored in our database for station/object EB2EMZ-14. If no packets are shown the sender has not sent any weather packets the latest 10 day(s).
| Time | Temp. | Humidity | Pressure | Rain* | Wind** | Luminosity | Snow |
|---|---|---|---|---|---|---|---|
| 1777890307 | 14.44° C | 77% | 1012.5 hPa | 0 mm | - | 0 W/m² | - |
| 1777890007 | 14.44° C | 77% | 1012.5 hPa | 0 mm | - | 0 W/m² | - |
| 1777889707 | 14.44° C | 79% | 1012.4 hPa | 0 mm | - | 0 W/m² | - |
| 1777889407 | 14.44° C | 80% | 1012.3 hPa | 0 mm | - | 0 W/m² | - |
| 1777889107 | 14.44° C | 80% | 1012.3 hPa | 0 mm | - | 0 W/m² | - |
| 1777888807 | 13.89° C | 81% | 1012.3 hPa | 0 mm | - | 0 W/m² | - |
| 1777888508 | 13.89° C | 81% | 1012.2 hPa | 0 mm | - | 0 W/m² | - |
| 1777888208 | 13.89° C | 81% | 1012.2 hPa | 0 mm | - | 0 W/m² | - |
| 1777887908 | 13.89° C | 82% | 1012.3 hPa | 0 mm | - | 0 W/m² | - |
| 1777887608 | 13.89° C | 82% | 1012.2 hPa | 0 mm | - | 0 W/m² | - |
| 1777887307 | 13.89° C | 82% | 1012.2 hPa | 0 mm | - | 0 W/m² | - |
| 1777887007 | 13.89° C | 83% | 1012.1 hPa | 0 mm | - | 0 W/m² | - |
| 1777886707 | 13.89° C | 84% | 1012.1 hPa | 0 mm | - | 0 W/m² | - |
| 1777886407 | 13.89° C | 85% | 1012.1 hPa | 0 mm | - | 0 W/m² | - |
| 1777886108 | 14.44° C | 86% | 1012.1 hPa | 0 mm | - | 0 W/m² | - |
| 1777885808 | 14.44° C | 90% | 1012.1 hPa | 0 mm | - | 0 W/m² | - |
| 1777885510 | 13.33° C | 92% | 1012 hPa | 0 mm | - | 0 W/m² | - |
| 1777885209 | 12.22° C | 92% | 1011.9 hPa | 0.51 mm | - | 0 W/m² | - |
| 1777884907 | 11.11° C | 92% | 1012.1 hPa | 1.02 mm | - | 0 W/m² | - |
| 1777884608 | 10° C | 92% | 1012 hPa | 2.54 mm | - | 0 W/m² | - |
| 1777884308 | 9.44° C | 91% | 1012.2 hPa | 2.54 mm | - | 0 W/m² | - |
| 1777884007 | 9.44° C | 91% | 1012.2 hPa | 2.54 mm | - | 0 W/m² | - |
| 1777883708 | 9.44° C | 91% | 1012.1 hPa | 2.54 mm | - | 0 W/m² | - |
| 1777883407 | 8.89° C | 91% | 1012.1 hPa | 2.54 mm | - | 0 W/m² | - |
| 1777883107 | 8.89° C | 91% | 1011.9 hPa | 2.54 mm | - | 0 W/m² | - |
* Rain latest hour (hover to see other rain measurements)
** Current wind speed in m/s (hover to see current wind gust speed)